Regional Weather Roundup
Issued by NWS

Home | Current Version | Previous Version | Text Only | Print | Product List | Glossary Off
Versions: 1 2 3 4 5 6 7 8 9 10 11 12 13 14 15 16 17 18 19 20 21 22 23 24 25 26 27 28 29 30 31 32 33 34 35 36 37 38 39 40 41 42 43 44 45 46 47 48 49 50

000
ASUS43 KDTX 230201
RWRMI
MICHIGAN HOURLY REGIONAL WEATHER ROUNDUP
NATIONAL WEATHER SERVICE DETROIT/PONTIAC MI
1000 PM EDT FRI JUL 22 2016

NOTE: "FAIR" INDICATES FEW OR NO CLOUDS BELOW 12,000 FEET WITH NO
SIGNIFICANT WEATHER AND/OR OBSTRUCTION TO VISIBILITY.

MIZ047>049-052>055-059>063-066>070-074>076-081>083-230300-
SOUTHEAST LOWER MICHIGAN

CITY           SKY/WX    TMP DP  RH WIND       PRES   REMARKS
ADRIAN         CLEAR     79  72  79 NW5       29.97R
ALMA           CLEAR     81  72  75 W7        29.96S
ANN ARBOR      CLEAR     80  71  74 W5        29.96R
BAD AXE        CLEAR     74  61  62 CALM      29.94R
CARO           CLEAR     80  70  73 W5        29.94R
DETROIT CITY   CLEAR     87  69  54 W8        29.93R HX  91
DETROIT        CLEAR     84  69  60 NW7       29.95R
FLINT          CLEAR     84  67  56 W7        29.95R
GROSSE ILE     CLEAR     83  71  66 CALM      29.93R
HOWELL         CLEAR     79  68  69 W3        29.97R

CITY           SKY/WX    TMP DP  RH WIND       PRES   REMARKS
JACKSON        CLEAR     77  71  82 NW7       29.98R
LAMBERTVILLE   CLEAR     80  72  75 CALM      29.97R
LANSING        CLEAR     80  69  69 W8        29.98R
LAPEER         FAIR      83  65  56 W5        29.95R
MASON          CLEAR     80  69  68 CALM      29.98R
MONROE         CLEAR     78  74  86 CALM      29.94R
MT. CLEMENS    CLEAR     85  69  57 W6        29.91R
PONTIAC        CLEAR     82  69  64 W8        29.95R
PORT HOPE        N/A     72  70  93 CALM      29.92
PORT HURON     CLEAR     77  70  78 CALM      29.93R
TRI CITIES     CLEAR     81  73  76 NW7       29.95R
MIDLAND        FAIR      73  66  80 CALM      29.94R
TROY           CLEAR     87  67  50 W5        29.96R
SAGINAW HB     CLEAR     81  70  69 W6        29.94R
$$
MIZ043>046-050>051-056>058-064>065-071>073-077>080-230300-
SOUTHWEST LOWER MICHIGAN

CITY           SKY/WX    TMP DP  RH WIND       PRES   REMARKS
BATTLE CREEK   CLEAR     75  71  87 NW6       30.00R
BENTON HARBOR  CLEAR     75  69  81 CALM      29.98S
BIG RAPIDS     CLEAR     73  68  86 CALM      29.97S
COLDWATER      CLEAR     77  70  78 W3        29.99R
FREMONT        FAIR      72  71  97 SW3       29.98R
HOLLAND        CLEAR     71  67  87 CALM      29.99S
GRAND RAPIDS   CLEAR     77  68  73 W7        29.98S
IONIA          FAIR      79  67  67 W6        29.98R
KALAMAZOO      CLEAR     78  69  73 NW5       29.99R
LUDINGTON      CLEAR     72  69  89 CALM      29.96R
MARSHALL       CLEAR     78  71  79 NW3       29.99R
MOUNT PLEASANT CLEAR     80  66  61 W5        29.96R
MUSKEGON       PTCLDY    71  69  93 CALM      29.97F
SOUTH HAVEN    CLEAR     72  69  91 CALM      29.99S
$$
MIZ016>042-230300-
NORTHERN LOWER MICHIGAN

CITY           SKY/WX    TMP DP  RH WIND       PRES   REMARKS
ALPENA         CLEAR     79  58  48 W3        29.92R
BEAVER ISLAND  CLEAR     69  64  84 W6        29.94S
BELLAIRE       CLEAR     71  65  83 CALM      29.94R
CADILLAC       CLEAR     73  61  66 CALM      29.98S
CHARLEVOIX     CLEAR     73  64  71 W7        29.97R
FRANKFORT      CLEAR     74  68  81 CALM      29.95S
GAYLORD        CLEAR     73  62  68 CALM      29.97S
GRAYLING       CLEAR     68  61  78 CALM      29.98R
HARBOR SPRINGS CLEAR     75  60  58 W8        29.94R
HOUGHTON LAKE  CLEAR     70  60  70 CALM      29.98R
MANISTEE       CLEAR     73  68  84 CALM      29.95S
OSCODA         CLEAR     73  65  76 SW3       29.92R
PELLSTON       CLEAR     73  62  68 W6        29.94S
ROGERS CITY    CLEAR     77  60  56 W6        29.93R
TRAVERSE CITY  CLEAR     80  62  54 CALM      29.92S
$$
MIZ007>008-015-230300-
EASTERN UPPER MICHIGAN

CITY           SKY/WX    TMP DP  RH WIND       PRES   REMARKS
KINROSS        CLEAR     70  61  73 N8        29.93R
MACKINAC ISLAN CLEAR     70  66  86 W7        29.93R
NEWBERRY       CLEAR     68  63  83 W6        29.93R
S. S. MARIE    CLEAR     69  60  73 NW6       29.91S
MUNISING         N/A     72  64  76 VRB3      29.92R
$$
MIZ004>006-011>014-085-230300-
CENTRAL UPPER MICHIGAN

CITY           SKY/WX    TMP DP  RH WIND       PRES   REMARKS
MANISTIQUE     CLEAR     68  66  95 CALM      29.93R
ESCANABA       CLEAR     75  55  50 CALM      29.92S
MENOMINEE      CLEAR     76  73  91 CALM      29.94R
SAWYER-GWINN   CLEAR     79  55  44 W3        29.96S
$$
MIZ001>003-009>011-084-230300-
WESTERN UPPER MICHIGAN

CITY           SKY/WX    TMP DP  RH WIND       PRES   REMARKS
IRON MOUNTAIN  CLEAR     73  60  63 CALM      29.95F
HOUGHTON       CLEAR     72  54  53 W8        29.93R
COPPER HARBOR    N/A     74  57  55 W3        29.90R
IRONWOOD       CLEAR     72  70  94 CALM      29.94S
$$

ABBREVIATIONS USED IN REMARKS
   TC - TEMPERATURE IN CELSIUS
  WCI - WIND CHILL INDEX
   HX - HEAT INDEX
  VSB - VISIBILITY





USA.gov is the U.S. government's official web portal to all federal, state and local government web resources and services.